Weather History for Adana Incirlik AFB, Turkey

Change the Weather History Date:

Sunday, October 21, 2012

  Actual Average Record
Temperature  
Mean Temperature 78 °F -  
Max Temperature 85 °F 76 °F 89 °F (2008)
Min Temperature 71 °F 54 °F 44 °F (2005)
Cooling Degree Days 13    
Growing Degree Days 28 (Base 50)    
Moisture  
Dew Point 49 °F    
Average Humidity 37    
Maximum Humidity 50    
Minimum Humidity 20    
Precipitation  
Precipitation 0.00 in - - ()
Sea Level Pressure  
Sea Level Pressure 29.93 in    
Wind  
Wind Speed 13 mph ()    
Max Wind Speed 22 mph    
Max Gust Speed -    
Visibility 6.2 miles    
Events      
Averages and records for this station are not official NWS values.
T = Trace of Precipitation, MM = Missing Value Source: Averaged Metar Reports

Daily Weather History Graph

Daily Weather History Graph

Search for Another Location

Airport:

Trip Planner

Search our weather history database for the weather conditions in past years. The results will help you decide how hot, cold, wet, or windy it might be!

Date:

Astronomy

Oct. 21, 2012 Rise Set
Actual Time 6:51 AM EEST 5:53 PM EEST
Civil Twilight 6:25 AM EEST 6:19 PM EEST
Nautical Twilight 5:55 AM EEST 6:50 PM EEST
Astronomical Twilight 5:24 AM EEST 7:20 PM EEST
Moon 12:54 PM EEST (10/21) 11:26 PM EEST (10/21)
Length of Visible Light 11h 54m
Length of Day
11h 01m
Waxing Crescent, 41% of the Moon is Illuminated
Oct 21
Waxing Crescent
Oct 22
First Quarter
Oct 29
Full
Nov 7
Last Quarter
Nov 14
New

Hourly Weather History & Observations

Time (EEST) Temp. Dew Point Humidity Pressure Visibility Wind Dir Wind Speed Gust Speed Precip Events Conditions
12:20 AM 75.2 °F 48.2 °F 38% 29.92 in 6.2 mi NNE 17.3 mph - N/A   Mostly Cloudy
12:50 AM 73.4 °F 48.2 °F 41% 29.92 in 6.2 mi NNE 16.1 mph - N/A   Mostly Cloudy
1:20 AM 73.4 °F 48.2 °F 41% 29.92 in 6.2 mi NNE 16.1 mph - N/A   Mostly Cloudy
1:50 AM 73.4 °F 48.2 °F 41% 29.92 in 6.2 mi NNE 16.1 mph - N/A   Mostly Cloudy
2:20 AM 75.2 °F 48.2 °F 38% 29.92 in 6.2 mi NNE 17.3 mph - N/A   Mostly Cloudy
2:50 AM 73.4 °F 48.2 °F 41% 29.92 in 6.2 mi NNE 17.3 mph - N/A   Mostly Cloudy
3:00 AM 74 °F 47 °F 28% 29.91 in 6 mi NNE 17.3 mph - -   Partly Cloudy
3:20 AM 73.4 °F 48.2 °F 41% 29.92 in 6.2 mi NNE 17.3 mph - N/A   Mostly Cloudy
3:50 AM 73.4 °F 46.4 °F 38% 29.92 in 6.2 mi NNE 17.3 mph - N/A   Mostly Cloudy
4:20 AM 75.2 °F 46.4 °F 36% 29.92 in 6.2 mi NNE 17.3 mph - N/A   Mostly Cloudy
4:50 AM 73.4 °F 46.4 °F 38% 29.92 in 6.2 mi NNE 16.1 mph - N/A   Mostly Cloudy
5:20 AM 73.4 °F 46.4 °F 38% 29.92 in 6.2 mi NNE 16.1 mph - N/A   Mostly Cloudy
5:50 AM 73.4 °F 46.4 °F 38% 29.92 in 6.2 mi NNE 16.1 mph - N/A   Mostly Cloudy
6:20 AM 73.4 °F 46.4 °F 38% 29.92 in 6.2 mi NNE 16.1 mph - N/A   Mostly Cloudy
6:50 AM 73.4 °F 46.4 °F 38% 29.92 in 6.2 mi NNE 13.8 mph - N/A   Mostly Cloudy
7:20 AM 71.6 °F 46.4 °F 41% 29.92 in 6.2 mi NNE 13.8 mph - N/A   Mostly Cloudy
7:50 AM 73.4 °F 46.4 °F 38% 29.92 in 6.2 mi NNE 16.1 mph - N/A   Mostly Cloudy
8:20 AM 75.2 °F 48.2 °F 38% 29.92 in 6.2 mi NNE 17.3 mph - N/A   Mostly Cloudy
8:50 AM 75.2 °F 48.2 °F 38% 29.95 in 6.2 mi NE 19.6 mph - N/A   Mostly Cloudy
9:00 AM 75 °F 49 °F 29% 29.94 in 6 mi NE 19.6 mph - -   Partly Cloudy
9:20 AM 77.0 °F 50.0 °F 39% 29.95 in 6.2 mi NNE 20.7 mph - N/A   Mostly Cloudy
9:50 AM 78.8 °F 50.0 °F 36% 29.95 in 6.2 mi NE 21.9 mph - N/A   Mostly Cloudy
10:20 AM 78.8 °F 48.2 °F 34% 29.95 in 6.2 mi ENE 19.6 mph - N/A   Mostly Cloudy
10:50 AM 80.6 °F 48.2 °F 32% 29.95 in 6.2 mi NE 20.7 mph - N/A   Mostly Cloudy
11:20 AM 82.4 °F 50.0 °F 32% 29.95 in 6.2 mi NE 20.7 mph - N/A   Mostly Cloudy
11:50 AM 84.2 °F 48.2 °F 29% 29.95 in 6.2 mi NE 18.4 mph - N/A   Mostly Cloudy
12:20 PM 84.2 °F 48.2 °F 29% 29.95 in 6.2 mi NE 15.0 mph - N/A   Mostly Cloudy
12:50 PM 84.2 °F 46.4 °F 27% 29.95 in 6.2 mi East 5.8 mph - N/A   Mostly Cloudy
1:20 PM 84.2 °F 46.4 °F 27% 29.92 in 6.2 mi East 6.9 mph - N/A   Mostly Cloudy
1:50 PM 84.2 °F 50.0 °F 30% 29.92 in 6.2 mi ENE 4.6 mph - N/A   Mostly Cloudy
2:20 PM 84.2 °F 50.0 °F 30% 29.92 in 6.2 mi East 4.6 mph - N/A   Mostly Cloudy
2:50 PM 84.2 °F 50.0 °F 30% 29.92 in 6.2 mi SE 9.2 mph - N/A   Mostly Cloudy
3:00 PM 84 °F 50 °F 20% 29.91 in 6 mi SE 9.2 mph - -   Partly Cloudy
3:20 PM 84.2 °F 50.0 °F 30% 29.92 in 6.2 mi SE 6.9 mph - N/A   Mostly Cloudy
3:50 PM 84.2 °F 50.0 °F 30% 29.92 in 6.2 mi ESE 8.1 mph - N/A   Mostly Cloudy
4:20 PM 84.2 °F 50.0 °F 30% 29.92 in 6.2 mi East 3.5 mph - N/A   Mostly Cloudy
4:50 PM 82.4 °F 50.0 °F 32% 29.92 in 6.2 mi East 3.5 mph - N/A   Mostly Cloudy
5:20 PM 82.4 °F 51.8 °F 35% 29.92 in 6.2 mi SSE 3.5 mph - N/A   Mostly Cloudy
5:50 PM 80.6 °F 51.8 °F 37% 29.92 in 6.2 mi East 3.5 mph - N/A   Mostly Cloudy
6:20 PM 77.0 °F 53.6 °F 44% 29.92 in 6.2 mi NE 3.5 mph - N/A   Mostly Cloudy
6:50 PM 75.2 °F 53.6 °F 47% 29.92 in 6.2 mi NNE 4.6 mph - N/A   Mostly Cloudy
7:20 PM 73.4 °F 53.6 °F 50% 29.95 in 6.2 mi North 5.8 mph - N/A   Mostly Cloudy
7:50 PM 73.4 °F 51.8 °F 47% 29.95 in 6.2 mi North 6.9 mph - N/A   Mostly Cloudy
8:20 PM 73.4 °F 51.8 °F 47% 29.95 in 6.2 mi NNE 10.4 mph - N/A   Mostly Cloudy
8:50 PM 75.2 °F 50.0 °F 41% 29.95 in 6.2 mi NE 10.4 mph - N/A   Mostly Cloudy
9:00 PM 74 °F 50 °F 32% 29.94 in 6 mi NE 10.4 mph - -   Partly Cloudy
9:20 PM 75.2 °F 50.0 °F 41% 29.95 in 6.2 mi NNE 10.4 mph - N/A   Mostly Cloudy
9:50 PM 75.2 °F 50.0 °F 41% 29.95 in 6.2 mi NE 16.1 mph - N/A   Mostly Cloudy
10:20 PM 73.4 °F 50.0 °F 44% 29.95 in 6.2 mi NE 17.3 mph - N/A   Mostly Cloudy
10:50 PM 73.4 °F 50.0 °F 44% 29.95 in 6.2 mi NE 13.8 mph - N/A   Mostly Cloudy
11:20 PM 73.4 °F 50.0 °F 44% 29.95 in 6.2 mi ENE 16.1 mph - N/A   Mostly Cloudy
11:50 PM 73.4 °F 48.2 °F 41% 29.95 in 6.2 mi NE 15.0 mph - N/A   Mostly Cloudy